Simultaneous Nadir Overpasses (SNOs) Predictions

Prediction of SNOs between GOES-16 and METOP-B Satellite Orbit:

Table of predicted SNOs for the next 14.0 days since TLE Epoch: 10/22/2022
Index Date Time (GOES-16) GOES-16 Lat,Lon METOP-B Lat,Lon Distance(km) Time Diff (sec)
1 10/23/2022 14:47:48 -0.07, -75.22 0.75, -78.98 428.95 80
2 10/24/2022 14:27:08 -0.07, -75.22 -0.33, -73.98 140.96 80
3 10/26/2022 02:46:10 0.06, -75.22 -0.67, -78.58 383.48 80
4 10/27/2022 02:22:50 0.06, -75.22 0.41, -73.58 186.50 80
5 10/28/2022 14:41:43 -0.06, -75.25 0.60, -78.14 329.84 80
6 10/29/2022 14:23:44 -0.06, -75.26 -0.55, -73.16 240.20 80
7 10/31/2022 02:42:44 0.05, -75.25 -0.50, -77.75 283.93 80
8 11/01/2022 02:19:25 0.05, -75.26 0.59, -72.75 286.38 80
9 11/02/2022 14:40:57 -0.04, -75.30 0.42, -77.31 229.10 80
10 11/03/2022 14:17:39 -0.04, -75.32 -0.73, -72.32 341.81 80
11 11/05/2022 02:39:19 0.04, -75.33 -0.31, -76.91 180.61 80
